Change the Weather History Date:

Monday, July 29, 2013

  Actual Average Record
Temperature  
Mean Temperature 61 °F -  
Max Temperature 69 °F 79 °F 99 °F (1916)
Min Temperature 53 °F 58 °F 43 °F (1934)
Degree Days  
Heating Degree Days 4    
Growing Degree Days 11 (Base 50)    
Moisture  
Dew Point 51 °F    
Average Humidity 75    
Maximum Humidity 88    
Minimum Humidity 49    
Precipitation  
Precipitation 0.00 in - - ()
Sea Level Pressure  
Sea Level Pressure 30.10 in    
Wind  
Wind Speed 10 mph (WNW)    
Max Wind Speed 17 mph    
Max Gust Speed 25 mph    
Visibility 10 miles    
Events      
Averages and records for this station are not official NWS values.
T = Trace of Precipitation, MM = Missing Value Source: NWS Daily Summary

Daily Weather History Graph

Daily Weather History Graph

Search for Another Location

Airport or City:

Trip Planner

Search our weather history database for the weather conditions in past years. The results will help you decide how hot, cold, wet, or windy it might be!

Date:

Astronomy

Jul. 29, 2013 Rise Set
Actual Time 5:32 AM CDT 8:19 PM CDT
Civil Twilight 4:58 AM CDT 8:53 PM CDT
Nautical Twilight 4:15 AM CDT 9:35 PM CDT
Astronomical Twilight 3:25 AM CDT 10:25 PM CDT
Moon 11:53 PM CDT (7/29) 1:36 PM CDT (7/29)
Length of Visible Light 15h 54m
Length of Day
14h 46m
Waning Gibbous, 50% of the Moon is Illuminated
Jul 29
Waning Gibbous
Jul 29
Last Quarter
Aug 6
New
Aug 14
First Quarter
Aug 20
Full

Hourly Weather History & Observations

Time (CDT) Temp. Dew Point Humidity Pressure Visibility Wind Dir Wind Speed Gust Speed Precip Events Conditions
12:15 AM 53.6 °F 48.2 °F 82% 29.96 in 10.0 mi NNW 16.1 mph 20.7 mph N/A   Overcast
12:35 AM 53.6 °F 48.2 °F 82% 29.96 in 10.0 mi NNW 17.3 mph 25.3 mph N/A   Overcast
12:55 AM 53.6 °F 48.2 °F 82% 29.97 in 10.0 mi NNW 10.4 mph - N/A   Overcast
1:15 AM 53.6 °F 48.2 °F 82% 29.97 in 10.0 mi North 10.4 mph 20.7 mph N/A   Overcast
1:35 AM 53.6 °F 48.2 °F 82% 29.98 in 10.0 mi NNW 12.7 mph 18.4 mph N/A   Overcast
1:55 AM 53.6 °F 48.2 °F 82% 29.98 in 10.0 mi NNW 13.8 mph - N/A   Overcast
2:15 AM 53.6 °F 48.2 °F 82% 29.99 in 10.0 mi NNW 9.2 mph - N/A   Overcast
2:35 AM 53.6 °F 48.2 °F 82% 29.99 in 10.0 mi NNW 11.5 mph - N/A   Overcast
2:55 AM 53.6 °F 48.2 °F 82% 29.99 in 10.0 mi North 9.2 mph - N/A   Overcast
3:15 AM 53.6 °F 48.2 °F 82% 29.99 in 10.0 mi NNW 10.4 mph - N/A   Overcast
3:35 AM 53.6 °F 48.2 °F 82% 30.00 in 10.0 mi North 11.5 mph - N/A   Overcast
3:55 AM 53.6 °F 48.2 °F 82% 30.01 in 10.0 mi North 11.5 mph - N/A   Overcast
4:15 AM 53.6 °F 48.2 °F 82% 30.01 in 10.0 mi NNW 11.5 mph - N/A   Overcast
4:35 AM 53.6 °F 48.2 °F 82% 30.03 in 10.0 mi NNW 9.2 mph - N/A   Overcast
4:55 AM 53.6 °F 48.2 °F 82% 30.04 in 10.0 mi NNW 10.4 mph - N/A   Overcast
5:15 AM 53.6 °F 48.2 °F 82% 30.04 in 10.0 mi NNW 10.4 mph - N/A   Overcast
5:35 AM 53.6 °F 48.2 °F 82% 30.04 in 10.0 mi NNW 10.4 mph - N/A   Overcast
5:55 AM 53.6 °F 48.2 °F 82% 30.05 in 10.0 mi NNW 9.2 mph - N/A   Overcast
6:15 AM 53.6 °F 48.2 °F 82% 30.06 in 10.0 mi NNW 8.1 mph - N/A   Overcast
6:35 AM 53.6 °F 48.2 °F 82% 30.06 in 10.0 mi NNW 9.2 mph - N/A   Overcast
6:55 AM 53.6 °F 48.2 °F 82% 30.06 in 10.0 mi NNW 9.2 mph - N/A   Overcast
7:15 AM 53.6 °F 48.2 °F 82% 30.08 in 10.0 mi NW 10.4 mph - N/A   Overcast
7:35 AM 55.4 °F 50.0 °F 82% 30.08 in 10.0 mi NNW 10.4 mph - N/A   Overcast
7:55 AM 55.4 °F 50.0 °F 82% 30.09 in 10.0 mi NNW 9.2 mph - N/A   Overcast
8:15 AM 55.4 °F 50.0 °F 82% 30.09 in 10.0 mi NW 11.5 mph - N/A   Overcast
8:35 AM 55.4 °F 50.0 °F 82% 30.10 in 10.0 mi NW 8.1 mph - N/A   Overcast
8:55 AM 55.4 °F 51.8 °F 88% 30.10 in 10.0 mi NNW 9.2 mph - N/A   Overcast
9:15 AM 55.4 °F 51.8 °F 88% 30.11 in 10.0 mi NW 10.4 mph - N/A   Overcast
9:35 AM 57.2 °F 50.0 °F 77% 30.11 in 10.0 mi NW 9.2 mph - N/A   Overcast
9:55 AM 57.2 °F 51.8 °F 82% 30.12 in 10.0 mi WNW 10.4 mph - N/A   Overcast
10:15 AM 57.2 °F 51.8 °F 82% 30.12 in 10.0 mi WNW 10.4 mph - N/A   Overcast
10:35 AM 57.2 °F 51.8 °F 82% 30.12 in 10.0 mi West 3.5 mph - N/A   Overcast
10:55 AM 59.0 °F 51.8 °F 77% 30.13 in 10.0 mi NW 8.1 mph - N/A   Overcast
11:15 AM 60.8 °F 53.6 °F 77% 30.13 in 10.0 mi NW 5.8 mph - N/A   Overcast
11:35 AM 62.6 °F 53.6 °F 72% 30.13 in 10.0 mi North 6.9 mph - N/A   Scattered Clouds
11:55 AM 62.6 °F 53.6 °F 72% 30.14 in 10.0 mi NNW 5.8 mph - N/A   Partly Cloudy
12:15 PM 62.6 °F 53.6 °F 72% 30.14 in 10.0 mi WNW 4.6 mph - N/A   Partly Cloudy
12:35 PM 64.4 °F 53.6 °F 68% 30.14 in 10.0 mi West 5.8 mph - N/A   Scattered Clouds
12:55 PM 64.4 °F 53.6 °F 68% 30.14 in 10.0 mi SW 3.5 mph - N/A   Partly Cloudy
1:15 PM 64.4 °F 53.6 °F 68% 30.15 in 10.0 mi NW 3.5 mph - N/A   Clear
1:35 PM 66.2 °F 53.6 °F 64% 30.14 in 10.0 mi North 5.8 mph - N/A   Clear
1:55 PM 66.2 °F 51.8 °F 60% 30.14 in 10.0 mi ENE 6.9 mph - N/A   Clear
2:15 PM 66.2 °F 50.0 °F 56% 30.14 in 10.0 mi ENE 4.6 mph - N/A   Clear
2:35 PM 68.0 °F 48.2 °F 49% 30.14 in 10.0 mi ESE 3.5 mph - N/A   Clear
2:55 PM 69.8 °F 51.8 °F 53% 30.14 in 10.0 mi Calm Calm - N/A   Clear
3:15 PM 69.8 °F 51.8 °F 53% 30.14 in 10.0 mi Calm Calm - N/A   Clear
3:35 PM 69.8 °F 51.8 °F 53% 30.14 in 10.0 mi Calm Calm - N/A   Clear
3:55 PM 69.8 °F 55.4 °F 60% 30.14 in 10.0 mi South 6.9 mph - N/A   Clear
4:15 PM 68.0 °F 57.2 °F 68% 30.14 in 10.0 mi SSE 10.4 mph - N/A   Clear
4:35 PM 66.2 °F 57.2 °F 73% 30.14 in 10.0 mi South 6.9 mph - N/A   Clear
4:55 PM 68.0 °F 57.2 °F 68% 30.14 in 10.0 mi South 8.1 mph - N/A   Clear
5:15 PM 68.0 °F 57.2 °F 68% 30.14 in 10.0 mi South 8.1 mph - N/A   Clear
5:35 PM 68.0 °F 57.2 °F 68% 30.14 in 10.0 mi South 8.1 mph - N/A   Clear
5:55 PM 68.0 °F 57.2 °F 68% 30.14 in 10.0 mi South 10.4 mph - N/A   Clear
6:15 PM 66.2 °F 57.2 °F 73% 30.14 in 10.0 mi South 10.4 mph - N/A   Clear
6:35 PM 66.2 °F 55.4 °F 68% 30.14 in 10.0 mi South 11.5 mph - N/A   Clear
6:55 PM 64.4 °F 53.6 °F 68% 30.14 in 10.0 mi South 9.2 mph - N/A   Clear
7:15 PM 64.4 °F 53.6 °F 68% 30.15 in 10.0 mi South 9.2 mph - N/A   Clear
7:35 PM 62.6 °F 53.6 °F 72% 30.15 in 10.0 mi South 8.1 mph - N/A   Clear
7:55 PM 62.6 °F 53.6 °F 72% 30.15 in 10.0 mi South 8.1 mph - N/A   Clear
8:15 PM 60.8 °F 53.6 °F 77% 30.15 in 10.0 mi South 6.9 mph - N/A   Clear
8:35 PM 59.0 °F 51.8 °F 77% 30.16 in 10.0 mi South 8.1 mph - N/A   Clear
8:55 PM 59.0 °F 51.8 °F 77% 30.16 in 10.0 mi South 8.1 mph - N/A   Clear
9:15 PM 59.0 °F 51.8 °F 77% 30.17 in 10.0 mi South 9.2 mph - N/A   Clear
9:35 PM 59.0 °F 51.8 °F 77% 30.17 in 10.0 mi South 9.2 mph - N/A   Clear
9:55 PM 59.0 °F 51.8 °F 77% 30.17 in 10.0 mi South 10.4 mph - N/A   Clear
10:15 PM 59.0 °F 51.8 °F 77% 30.17 in 10.0 mi South 9.2 mph - N/A   Clear
10:35 PM 57.2 °F 51.8 °F 82% 30.17 in 10.0 mi South 10.4 mph - N/A   Clear
10:55 PM 57.2 °F 51.8 °F 82% 30.17 in 10.0 mi South 9.2 mph - N/A   Clear
11:15 PM 57.2 °F 51.8 °F 82% 30.17 in 10.0 mi SSW 8.1 mph - N/A   Clear
11:35 PM 57.2 °F 51.8 °F 82% 30.17 in 10.0 mi South 8.1 mph - N/A   Clear
11:55 PM 57.2 °F 51.8 °F 82% 30.18 in 10.0 mi South 8.1 mph - N/A   Clear